Regional Weather Roundup
Issued by NWS

Home | Current Version | Previous Version | Graphics & Text | Print | Product List | Glossary Off
Versions: 1 2 3 4 5 6 7 8 9 10 11 12 13 14 15 16 17 18 19 20 21 22 23 24 25 26 27 28 29 30 31 32 33 34 35 36 37 38 39 40 41 42 43 44 45 46 47 48 49 50

523
ASUS44 KLIX 231310
RWRLA
LOUISIANA WEATHER ROUNDUP
NATIONAL WEATHER SERVICE NEW ORLEANS LA
700 AM CST SUN NOV 23 2014

NOTE: "FAIR" INDICATES FEW OR NO CLOUDS BELOW 12,000 FEET WITH NO
      SIGNIFICANT WEATHER AND/OR OBSTRUCTIONS TO VISIBILITY.
      SKY/WX - SKY CONDITION AND SIGNIFICANT WEATHER.
      TMP - AIR TEMPERATURE.    DP   - DEWPOINT TEMPERATURE.
      RH  - RELATIVE HUMIDITY.  PRES - PRESSURE.
      HX  - HEAT INDEX.         WCI  - WIND CHILL INDEX.

*  THESE STATIONS ARE NOT NWS OR FAA STATIONS AND ARE NOT UNDER
   NWS QUALITY CONTROL.

LAZ040-048-061>063-065-066-069-231400-
SOUTHEAST LOUISIANA

CITY           SKY/WX    TMP DP  RH WIND       PRES   REMARKS
N.O. AUDUBON   NOT AVBL
N.O. INTL ARPT LGT RAIN  64  62  93 SW9G23    29.74R
N.O. LAKEFRONT RAIN      66  63  90 SW15      29.74R FOG
N.O. DOWNTOWN* CLOUDY    64  61  88 S7G22     29.75R
SLIDELL        HVY RAIN  67  65  93 E9        29.71F FOG
BATON ROUGE    LGT RAIN  65  63  93 SE13      29.66F
BOOTHVILLE     CLOUDY    68  68 100 S13       29.75R
BELLE CHASSE   LGT RAIN  67  63  87 SW18G24   29.74R
BOGALUSA*      LGT RAIN  64  61  91 E7        29.73F
NEW ROADS*     LGT RAIN  64  63  97 E17G23    29.61F
GONZALES*      DRIZZLE   64  64 100 SE6       29.68F
HAMMOND*       LGT RAIN  64  61  88 E6        29.70F
HOUMA*         MOCLDY    63  63 100 SW9       29.76S FOG
PORT FOURCHON* PTSUNNY   63  61  94 W17G30    29.84R FOG

$$

LAZ041-044-053-054-231400-
SOUTHWEST LOUISIANA

CITY           SKY/WX    TMP DP  RH WIND       PRES   REMARKS
LAKE CHARLES   CLOUDY    61  59  93 SW8       29.63F
LAFAYETTE      CLOUDY    63  32  31 VRB5      29.63F
PATTERSON      CLOUDY    63  61  94 S8        29.72F
SALT POINT       N/A     66  59  78 VRB3      29.68F
NEW IBERIA     LGT RAIN  63  61  93 S7        29.65F
CHENAULT AIRPK PTCLDY    61  61 100 SW10      29.63R

$$

LAZ027-028-231400-
CENTRAL LOUISIANA

CITY           SKY/WX    TMP DP  RH WIND       PRES   REMARKS
FORT POLK      LGT RAIN  63  61  94 NW7       29.55S VSB 1
ALEXANDRIA INT LGT RAIN  63  62  97 E12       29.50F FOG
ALEXANDRIA     LGT RAIN  64  62  93 E13G18    29.53F

$$

LAZ001-002-231400-
NORTHWEST LOUISIANA

CITY           SKY/WX    TMP DP  RH WIND       PRES   REMARKS
SHREVEPORT     LGT RAIN  63  61  93 S5        29.58F
BARKSDALE AFB  CLOUDY    62  62 100 SE6       29.59F
DTN SHREVEPORT LGT RAIN  62  60  93 SE6       29.59F

$$

LAZ014-016-231400-
NORTHEAST LOUISIANA

CITY           SKY/WX    TMP DP  RH WIND       PRES   REMARKS
MONROE         RAIN      62  61  96 E7        29.64F FOG
TALLULAH       LGT RAIN  61  59  93 SE10      29.68F

$$




USA.gov is the U.S. government's official web portal to all federal, state and local government web resources and services.